Notices

What's New in latest Release from April 7th, 2021:

- Updated Glossary, including Speed of Maximum Gust, and Total Hourly Precipitation

- Updated national and regional climate services offices contacts and prices information

- Addition of station inventory lists for 1981-2010, 1971-2000, and 1961-1990 Normals.

If you haven't already, please take our survey and provide feedback about our website: https://eccc.sondage-survey.ca/f/LanguageSelection.aspx?s=442ca660-fcf1-47c0-95a9-59707d6fd709

Hourly Data Report for August 31, 2003

TORONTO CITY
ONTARIO

43°40'00.000" N
79°24'00.000" W
112.50 m
6158355
71508
XTO

Download Data

Hourly Data (August 2003)
Hourly Data Report for August 31, 2003
TIME
LST
Temp Definition
°C
Dew Point Definition
°C
Rel Hum Definition
%
Precip. Amount Definition
mm

Wind Dir Definition
10's deg

Wind Spd Definition
km/h
Visibility Definition
km
Stn Press Definition
kPa
Hmdx Definition


Wind Chill Definition


Weather Definition


00:00 14.2 7.9 66   LegendMM LegendMM LegendMM 101.17     LegendNANA
01:00 14.0 8.7 70   LegendMM LegendMM LegendMM 101.19     LegendNANA
02:00 14.3 9.7 74   LegendMM LegendMM LegendMM 101.18     LegendNANA
03:00 13.6 10.3 80   LegendMM LegendMM LegendMM 101.18     LegendNANA
04:00 12.8 10.4 85   LegendMM LegendMM LegendMM 101.19     LegendNANA
05:00 13.0 10.3 84   LegendMM LegendMM LegendMM 101.22     LegendNANA
06:00 13.3 10.5 83   LegendMM LegendMM LegendMM 101.25     LegendNANA
07:00 13.8 10.6 81   LegendMM LegendMM LegendMM 101.26     LegendNANA
08:00 16.8 10.8 68   LegendMM LegendMM LegendMM 101.28     LegendNANA
09:00 18.3 10.4 60   LegendMM LegendMM LegendMM 101.29     LegendNANA
10:00 20.0 13.2 65   LegendMM LegendMM LegendMM 101.29     LegendNANA
11:00 20.7 12.4 59   LegendMM LegendMM LegendMM 101.26     LegendNANA
12:00 22.2 11.1 49   LegendMM LegendMM LegendMM 101.21     LegendNANA
13:00 24.0 12.7 49   LegendMM LegendMM LegendMM 101.15 27   LegendNANA
14:00 21.5 10.4 49   LegendMM LegendMM LegendMM 101.10     LegendNANA
15:00 22.2 10.7 48   LegendMM LegendMM LegendMM 101.02     LegendNANA
16:00 21.7 11.1 51   LegendMM LegendMM LegendMM 100.97     LegendNANA
17:00 20.7 11.3 55   LegendMM LegendMM LegendMM 100.95     LegendNANA
18:00 20.4 12.5 60   LegendMM LegendMM LegendMM 100.92     LegendNANA
19:00 19.7 12.8 64   LegendMM LegendMM LegendMM 100.91     LegendNANA
20:00 19.3 13.4 69   LegendMM LegendMM LegendMM 100.92     LegendNANA
21:00 19.5 13.6 69   LegendMM LegendMM LegendMM 100.93     LegendNANA
22:00 18.9 13.5 71   LegendMM LegendMM LegendMM 100.90     LegendNANA
23:00 18.6 13.7 73   LegendMM LegendMM LegendMM 100.90     LegendNANA

Notes on Data Quality.

Legend

  • E = Estimated
  • M = Missing
  • NA = Not Available*
  • [empty] = Indicates an unobserved value
Date modified: